Flag for Switzerland Weather past 2 weeks in Pully, Vaud, Switzerland

Now
72 °F

Passing clouds.


Feels Like: 73 °F
Forecast: 58 / 86 °F
Wind: 3 mph from West

Location: Aigle

Current Time: Aug 2, 2015 at 9:03:41 PM

Latest Report: Aug 2, 2015 at 8:00 PM


Visibility: 19 mi

Pressure: 29.97 "Hg

Humidity: 77%

Dew point: 65 °F

Location of PullyLocation

Historic Weather in Pully — Graph

°F

Pully temperature yesterday

Maximum temperature yesterday: 67 °F (at 1:00 PM)
Minimum temperature yesterday: 60 °F (at 7:00 AM)
Average temperature yesterday: 64 °F

Past Weeks' High & Low Weather Summary

 TemperatureHumidityPressure
High94 °F (Jul 21, 4:00 PM)100% (Aug 2, 3:00 AM)30.09 "Hg (Aug 2, 3:00 AM)
Low49 °F (Jul 31, 7:00 AM)28% (Jul 20, 6:00 PM)29.71 "Hg (Jul 24, 4:00 PM)
Average70 °F69%29.93 "Hg
* Reported Jul 18 7:00 PM — Aug 2 7:00 PM, Pully, Weather by CustomWeather, © 2015

Note: Actual official high and low records may vary slightly from our data, if they occured in-between our weather recording intervals... More about our weather records

Advertising

Pully weather history for previous 24 hours

 ConditionsComfort  
Time TempWeatherWind HumidityBarometerVisibility
7:00 PM
Sun, Aug 2
76 °FMild.5 mph68%29.96 "HgN/A
6:00 PM78 °FWarm.6 mph58%29.97 "HgN/A
5:00 PM78 °FPassing clouds.12 mph59%29.98 "Hg16 mi
4:00 PM76 °FMild.10 mph62%29.99 "HgN/A
3:00 PM76 °FMild.10 mph66%30.00 "HgN/A
2:00 PM74 °FPassing clouds.10 mph66%30.01 "Hg19 mi
1:00 PM72 °FMild.8 mph68%30.02 "HgN/A
12:00 PM72 °FMild.2 mph66%30.04 "HgN/A
11:00 AM70 °FPartly sunny.3 mph73%30.06 "Hg9 mi
10:00 AM66 °FMild.3 mph85%30.09 "HgN/A
9:00 AM65 °FMild.2 mph88%30.09 "HgN/A
8:00 AM62 °FPartly sunny.3 mph95%30.08 "Hg16 mi
7:00 AM61 °FCool.1 mph98%30.08 "HgN/A
6:00 AM62 °FCool.3 mph96%30.07 "HgN/A
4:00 AM61 °FCool.2 mph98%30.07 "HgN/A
3:00 AM60 °FCool.No wind100%30.06 "HgN/A
12:00 AM62 °FCool.2 mph98%30.07 "HgN/A
10:00 PM
Sat, Aug 1
63 °FMild.1 mph98%30.05 "HgN/A
9:00 PM64 °FMild.No wind98%30.03 "HgN/A
Weather by CustomWeather, © 2015

See weather overviewHow to use our weather pages